GW7665 Weather Reports


time (UTC)temp
C
wind
direction
speed
KPH
gust
KPH
rain 1hr
cm
rain 24hr
cm
rain mn
cm
humidity
%
barometer
mb
20260906132056 18 115 9.7 16.1 0.00 0.00 0.00 98 1019.9
20260906131610 18 131 12.9 16.1 0.00 0.00 0.00 98 1019.9
20260906131053 18 130 9.7 14.5 0.00 0.00 0.00 98 1019.9
20260906130553 18 111 9.7 19.3 0.00 0.00 0.00 98 1019.8
20260906130106 18 109 12.9 20.9 0.00 0.00 0.00 98 1019.7
20260906125553 18 100 12.9 20.9 0.00 0.00 0.00 98 1019.6
20260906125053 18 119 16.1 25.7 0.00 0.00 0.00 98 1019.7
20260906124604 18 119 17.7 25.7 0.00 0.00 0.00 98 1019.7
20260906124053 18 107 17.7 22.5 0.00 0.00 0.00 98 1019.7
20260906123554 18 121 17.7 20.9 0.00 0.00 0.00 98 1019.6
20260906123110 18 119 14.5 20.9 0.00 0.00 0.00 98 1019.6
20260906122553 18 110 12.9 20.9 0.00 0.00 0.00 98 1019.5
20260906122056 18 115 16.1 20.9 0.00 0.00 0.00 98 1019.5
20260906121602 18 113 12.9 22.5 0.00 0.00 0.00 98 1019.5
20260906121053 18 117 14.5 20.9 0.00 0.00 0.00 98 1019.5
20260906120556 18 114 16.1 20.9 0.00 0.00 0.00 98 1019.5
20260906120126 18 134 14.5 19.3 0.00 0.00 0.00 98 1019.4
20260906115553 18 128 12.9 17.7 0.00 0.00 0.00 98 1019.4
20260906115055 18 119 12.9 17.7 0.00 0.00 0.00 98 1019.2
20260906114618 18 129 14.5 17.7 0.00 0.00 0.00 98 1019.1
20260906114056 18 126 11.3 17.7 0.00 0.00 0.00 98 1019.2
20260906113553 18 129 12.9 17.7 0.00 0.00 0.00 98 1019.1
20260906113058 19 122 8.0 17.7 0.00 0.00 0.00 98 1019.2
20260906112553 19 136 11.3 17.7 0.00 0.00 0.00 98 1019.3
20260906112052 19 142 6.4 12.9 0.00 0.00 0.00 98 1019.4
20260906111604 19 122 6.4 17.7 0.00 0.00 0.00 98 1019.3
20260906111057 19 133 11.3 17.7 0.00 0.00 0.00 98 1019.3
20260906110553 19 131 9.7 19.3 0.00 0.00 0.00 98 1019.2
20260906110111 19 142 14.5 19.3 0.00 0.00 0.00 98 1019.1
20260906105553 19 135 14.5 22.5 0.00 0.03 0.00 98 1019.1
20260906105054 19 130 14.5 22.5 0.00 0.03 0.00 98 1019.0
20260906104605 19 156 11.3 19.3 0.00 0.03 0.00 98 1018.9
20260906104058 19 143 14.5 24.1 0.00 0.03 0.00 98 1018.9
20260906103553 19 146 14.5 24.1 0.00 0.03 0.00 98 1018.9
20260906103059 19 142 16.1 24.1 0.00 0.03 0.00 98 1018.9
20260906102554 19 124 11.3 19.3 0.00 0.03 0.00 98 1018.9
20260906102054 19 128 11.3 17.7 0.00 0.03 0.00 98 1018.8
20260906101604 19 138 12.9 19.3 0.00 0.03 0.00 98 1018.7
20260906101054 19 138 12.9 20.9 0.00 0.03 0.00 98 1018.7
20260906100554 19 117 14.5 20.9 0.00 0.03 0.00 98 1018.6
20260906100105 19 136 11.3 17.7 0.00 0.03 0.00 98 1018.6
20260906095554 18 136 11.3 17.7 0.00 0.03 0.00 98 1018.7
20260906095057 18 123 8.0 12.9 0.00 0.03 0.00 98 1018.7
20260906094557 18 140 8.0 12.9 0.00 0.03 0.00 97 1018.7
20260906094054 18 136 6.4 12.9 0.00 0.03 0.00 97 1018.6
20260906093555 18 109 9.7 12.9 0.00 0.03 0.00 97 1018.5
20260906093115 18 111 9.7 12.9 0.00 0.03 0.00 97 1018.4
20260906092554 18 103 9.7 14.5 0.00 0.03 0.00 97 1018.2
20260906092055 18 102 11.3 16.1 0.00 0.03 0.00 97 1018.2
20260906091606 18 107 11.3 16.1 0.00 0.03 0.00 97 1018.0
20260906091059 18 109 9.7 16.1 0.00 0.03 0.00 97 1018.0
20260906090554 18 100 12.9 17.7 0.00 0.03 0.00 97 1018.0
20260906090133 18 111 12.9 17.7 0.00 0.03 0.00 97 1017.9
20260906085554 18 114 14.5 17.7 0.00 0.03 0.00 97 1017.8
20260906085054 18 113 12.9 16.1 0.00 0.03 0.00 97 1017.9
20260906084558 18 102 11.3 16.1 0.00 0.03 0.00 97 1017.9
20260906084053 19 84 11.3 17.7 0.00 0.03 0.00 97 1017.8
20260906083554 19 117 12.9 17.7 0.00 0.03 0.00 97 1017.8
20260906083056 19 108 11.3 17.7 0.00 0.03 0.00 97 1017.8
20260906082554 19 102 12.9 17.7 0.00 0.03 0.00 97 1017.9
20260906082053 19 111 11.3 16.1 0.00 0.03 0.00 97 1018.1
20260906081557 18 112 11.3 16.1 0.00 0.03 0.00 97 1018.0
20260906081056 18 111 8.0 12.9 0.00 0.03 0.00 97 1018.1
20260906080554 18 84 4.8 14.5 0.00 0.03 0.00 97 1018.1
20260906080105 19 107 11.3 14.5 0.00 0.03 0.00 97 1018.0
20260906075555 19 101 11.3 17.7 0.00 0.03 0.00 97 1018.1
20260906075055 19 108 9.7 17.7 0.00 0.03 0.00 97 1018.1
20260906074600 19 78 11.3 14.5 0.00 0.03 0.00 97 1018.1
20260906074054 19 86 9.7 14.5 0.00 0.03 0.00 97 1018.2
20260906073554 19 103 8.0 16.1 0.00 0.03 0.00 97 1018.1
20260906073057 19 98 11.3 14.5 0.00 0.03 0.00 97 1018.2
20260906072558 19 105 11.3 14.5 0.00 0.03 0.00 97 1018.3
20260906072056 19 102 9.7 12.9 0.00 0.03 0.00 97 1018.4
20260906071610 19 88 8.0 12.9 0.00 0.03 0.00 97 1018.5
20260906071056 19 107 9.7 12.9 0.00 0.03 0.00 97 1018.4
20260906070553 19 116 8.0 11.3 0.00 0.03 0.00 97 1018.5
20260906070105 19 83 8.0 12.9 0.00 0.03 0.00 97 1018.5
20260906065553 19 104 8.0 14.5 0.00 0.03 0.00 97 1018.5
20260906065055 19 113 9.7 14.5 0.00 0.03 0.00 97 1018.5
20260906064600 19 104 9.7 14.5 0.00 0.03 0.00 97 1018.5
20260906064056 19 103 9.7 12.9 0.00 0.03 0.00 97 1018.6
20260906063555 19 109 9.7 12.9 0.00 0.03 0.00 97 1018.6
20260906063106 19 106 8.0 12.9 0.00 0.03 0.00 97 1018.7
20260906062552 19 66 6.4 12.9 0.00 0.03 0.00 97 1018.7
20260906062057 19 101 9.7 12.9 0.00 0.03 0.00 97 1018.6
20260906061607 19 103 8.0 11.3 0.00 0.03 0.00 96 1018.6
20260906061054 19 96 8.0 11.3 0.00 0.03 0.00 96 1018.7
20260906060553 20 89 3.2 11.3 0.00 0.03 0.00 96 1018.7
20260906060109 20 98 6.4 11.3 0.00 0.03 0.00 96 1018.7
20260906055553 20 113 4.8 9.7 0.00 0.03 0.00 97 1018.8
20260906055054 20 103 6.4 11.3 0.00 0.03 0.00 97 1018.8
20260906054607 20 109 8.0 11.3 0.00 0.03 0.00 97 1018.7
20260906054056 20 111 6.4 11.3 0.00 0.03 0.00 96 1018.7
20260906053556 20 101 6.4 12.9 0.00 0.03 0.00 97 1018.7
20260906053058 20 66 8.0 12.9 0.00 0.03 0.00 97 1018.7
20260906052555 20 103 8.0 11.3 0.00 0.03 0.00 97 1018.7
20260906052056 20 109 8.0 11.3 0.00 0.03 0.00 97 1018.6
20260906051606 20 107 9.7 11.3 0.00 0.03 0.00 97 1018.6
20260906051052 20 113 6.4 9.7 0.00 0.03 0.00 97 1018.6
20260906050552 20 85 4.8 9.7 0.00 0.03 0.00 97 1018.6
20260906050132 20 96 6.4 9.7 0.00 0.03 0.00 97 1018.6
20260906045553 20 104 6.4 9.7 0.00 0.03 0.03 97 1018.5
20260906045053 20 111 4.8 11.3 0.00 0.03 0.03 97 1018.5
20260906044559 20 66 3.2 11.3 0.00 0.03 0.03 96 1018.6
20260906044053 20 88 4.8 11.3 0.00 0.03 0.03 96 1018.6
20260906043552 20 101 3.2 6.4 0.00 0.03 0.03 96 1018.6
20260906043110 20 69 3.2 9.7 0.00 0.03 0.03 96 1018.7
20260906042552 20 78 3.2 9.7 0.00 0.03 0.03 96 1018.7
20260906042058 20 105 4.8 9.7 0.00 0.03 0.03 96 1018.6
20260906041606 20 128 1.6 6.4 0.00 0.03 0.03 96 1018.7
20260906041053 20 67 3.2 6.4 0.00 0.03 0.03 96 1018.7
20260906040554 20 47 1.6 6.4 0.00 0.03 0.03 96 1018.7
20260906040109 20 68 3.2 9.7 0.00 0.03 0.03 96 1018.7
20260906035555 20 99 4.8 9.7 0.00 0.03 0.03 96 1018.6
20260906035054 20 93 3.2 9.7 0.00 0.03 0.03 96 1018.5
20260906034559 21 82 4.8 9.7 0.00 0.03 0.03 96 1018.5
20260906034056 21 105 6.4 9.7 0.00 0.03 0.03 96 1018.4
20260906033553 21 115 3.2 11.3 0.00 0.03 0.03 96 1018.4
20260906033058 21 78 8.0 11.3 0.00 0.03 0.03 96 1018.2
20260906032554 21 106 8.0 11.3 0.00 0.03 0.03 96 1018.2
20260906032056 21 76 4.8 9.7 0.00 0.03 0.03 96 1018.3
20260906031604 21 109 6.4 11.3 0.00 0.03 0.03 96 1018.2
20260906031055 21 99 6.4 11.3 0.00 0.03 0.03 95 1018.2
20260906030555 21 103 8.0 12.9 0.00 0.03 0.03 96 1018.3
20260906030132 21 107 8.0 12.9 0.00 0.03 0.03 96 1018.2
20260906025555 21 111 8.0 11.3 0.00 0.03 0.03 96 1018.2
20260906025054 21 58 4.8 9.7 0.00 0.03 0.03 95 1018.2
20260906024609 21 99 6.4 11.3 0.00 0.03 0.03 95 1018.0
20260906024054 21 103 6.4 11.3 0.00 0.03 0.03 95 1018.0
20260906023555 21 108 8.0 11.3 0.00 0.03 0.03 95 1018.1
20260906023126 21 105 8.0 11.3 0.00 0.03 0.03 95 1017.9
20260906022554 21 122 6.4 9.7 0.00 0.03 0.03 95 1017.8
20260906022057 21 85 4.8 9.7 0.00 0.03 0.03 95 1017.9
20260906021616 21 85 6.4 12.9 0.00 0.03 0.03 95 1017.9
20260906021054 21 96 8.0 12.9 0.00 0.03 0.03 95 1017.8
20260906020553 21 89 4.8 9.7 0.00 0.03 0.03 95 1017.7
20260906020107 21 103 6.4 9.7 0.00 0.03 0.03 95 1017.7
20260906015554 21 100 6.4 12.9 0.00 0.03 0.03 95 1017.5
20260906015053 21 98 6.4 12.9 0.00 0.03 0.03 95 1017.4
20260906014623 21 89 4.8 12.9 0.00 0.03 0.03 95 1017.4
20260906014055 21 80 1.6 8.0 0.00 0.03 0.03 95 1017.3
20260906013554 21 88 3.2 8.0 0.00 0.03 0.03 95 1017.3
20260906013120 21 111 3.2 11.3 0.00 0.03 0.03 95 1017.1
20260906012552 21 65 3.2 11.3 0.00 0.03 0.03 95 1017.2
20260906012054 21 92 3.2 11.3 0.00 0.03 0.03 94 1017.0
20260906011604 21 78 1.6 11.3 0.00 0.03 0.03 94 1017.0
20260906011056 21 91 3.2 11.3 0.00 0.03 0.03 94 1016.9
20260906010555 22 101 1.6 4.8 0.00 0.03 0.03 94 1016.9
20260906010100 22 0 0.0 4.8 0.00 0.03 0.03 94 1017.0
20260906005554 22 90 1.6 9.7 0.00 0.03 0.03 94 1016.9
20260906005054 22 101 3.2 9.7 0.00 0.03 0.03 94 1016.7
20260906004606 22 98 3.2 4.8 0.00 0.03 0.03 94 1016.7
20260906004054 22 101 3.2 4.8 0.00 0.03 0.03 93 1016.7
20260906003554 22 101 1.6 6.4 0.00 0.03 0.03 93 1016.6
20260906003108 22 88 3.2 6.4 0.00 0.03 0.03 93 1016.5
20260906002555 22 82 0.0 6.4 0.00 0.03 0.03 93 1016.4
20260906002055 22 85 3.2 6.4 0.00 0.03 0.03 93 1016.4
20260906001559 22 92 4.8 6.4 0.00 0.03 0.03 92 1016.4
20260906001056 22 103 4.8 9.7 0.00 0.03 0.03 92 1016.3
20260906000554 22 95 4.8 9.7 0.00 0.03 0.03 92 1016.4
20260906000110 22 93 4.8 8.0 0.00 0.03 0.03 91 1016.3
20260905235556 23 100 3.2 9.7 0.00 0.03 0.03 91 1016.3
20260905235054 23 105 3.2 9.7 0.00 0.03 0.03 91 1016.3
20260905234615 23 107 4.8 9.7 0.00 0.03 0.03 91 1016.4
20260905234055 23 90 4.8 9.7 0.00 0.03 0.03 90 1016.4
20260905233554 23 116 6.4 9.7 0.00 0.03 0.03 90 1016.3
20260905233100 23 80 3.2 9.7 0.00 0.03 0.03 90 1016.2
20260905232555 23 103 3.2 9.7 0.00 0.03 0.03 90 1016.3
20260905232055 23 70 3.2 9.7 0.00 0.03 0.03 90 1016.3
20260905231608 23 16 1.6 8.0 0.00 0.03 0.03 90 1016.4
20260905231054 23 105 1.6 8.0 0.00 0.03 0.03 90 1016.4
20260905230555 23 61 3.2 8.0 0.00 0.03 0.03 89 1016.4
20260905230109 23 32 1.6 8.0 0.00 0.03 0.03 89 1016.4
20260905225556 23 113 3.2 9.7 0.00 0.03 0.03 89 1016.3
20260905225054 23 84 3.2 12.9 0.00 0.03 0.03 89 1016.2
20260905224609 23 127 4.8 16.1 0.00 0.03 0.03 89 1016.2
20260905224053 23 85 8.0 19.3 0.00 0.03 0.03 89 1016.1
20260905223554 23 103 11.3 19.3 0.00 0.03 0.03 88 1016.0
20260905223108 23 105 12.9 24.1 0.00 0.03 0.03 88 1016.0
20260905222555 23 98 12.9 24.1 0.00 0.03 0.03 88 1015.9
20260905222055 23 106 16.1 20.9 0.00 0.03 0.03 88 1015.9
20260905221605 23 96 12.9 19.3 0.00 0.03 0.03 89 1015.9
20260905221054 23 96 12.9 19.3 0.00 0.03 0.03 89 1015.9
20260905220554 23 111 8.0 16.1 0.00 0.03 0.03 90 1015.9
20260905220103 23 71 4.8 12.9 0.00 0.03 0.03 90 1016.0
20260905215554 23 41 3.2 9.7 0.00 0.03 0.03 90 1016.0
20260905215054 23 29 3.2 11.3 0.00 0.03 0.03 90 1016.1
20260905214606 23 92 1.6 11.3 0.00 0.03 0.03 91 1016.1
20260905214054 23 98 3.2 17.7 0.00 0.03 0.03 90 1016.0
20260905213554 23 92 4.8 19.3 0.00 0.03 0.03 90 1016.1
20260905213103 23 107 14.5 20.9 0.00 0.03 0.03 90 1015.9
20260905212554 23 92 9.7 20.9 0.00 0.03 0.03 90 1015.9
20260905212053 23 85 9.7 16.1 0.00 0.03 0.03 90 1016.0
20260905211604 23 131 6.4 16.1 0.00 0.03 0.03 90 1016.1
20260905211053 23 109 6.4 16.1 0.00 0.03 0.03 90 1016.2
20260905210554 23 63 4.8 16.1 0.00 0.03 0.03 90 1016.2
20260905210106 23 34 6.4 16.1 0.00 0.03 0.03 90 1016.2
20260905205555 23 116 4.8 14.5 0.00 0.03 0.03 90 1016.1
20260905205058 23 83 3.2 19.3 0.00 0.03 0.03 91 1016.0
20260905204558 23 101 4.8 19.3 0.00 0.03 0.03 90 1016.1
20260905204053 23 65 4.8 17.7 0.00 0.03 0.03 90 1016.1
20260905203557 23 9 3.2 17.7 0.00 0.03 0.03 90 1016.2
20260905203108 23 71 4.8 17.7 0.00 0.03 0.03 90 1016.2
20260905202555 23 169 4.8 17.7 0.00 0.03 0.03 90 1016.3
20260905202053 23 360 1.6 14.5 0.00 0.03 0.03 90 1016.4
20260905201607 23 46 3.2 14.5 0.00 0.03 0.03 91 1016.5
20260905201053 23 35 3.2 16.1 0.00 0.03 0.03 90 1016.6
20260905200555 23 117 8.0 16.1 0.00 0.03 0.03 89 1016.7
20260905200101 23 67 4.8 14.5 0.00 0.03 0.03 89 1016.7
20260905195555 23 119 3.2 17.7 0.00 0.03 0.03 90 1016.5
20260905195053 23 94 8.0 17.7 0.00 0.03 0.03 89 1016.6
20260905194608 23 28 4.8 16.1 0.00 0.03 0.03 88 1016.5
20260905194054 23 73 4.8 16.1 0.00 0.03 0.03 88 1016.7
20260905193551 23 56 3.2 16.1 0.00 0.03 0.03 88 1017.0
20260905193106 23 82 3.2 12.9 0.00 0.03 0.03 89 1017.0
20260905192556 23 36 6.4 12.9 0.00 0.03 0.03 88 1017.2
20260905192057 23 20 3.2 12.9 0.00 0.03 0.03 88 1017.3
20260905191615 23 25 4.8 11.3 0.00 0.03 0.03 88 1017.5
20260905191054 23 22 1.6 6.4 0.00 0.03 0.03 89 1017.8
20260905190556 23 98 1.6 12.9 0.00 0.03 0.03 90 1017.9
20260905190103 23 22 4.8 12.9 0.00 0.03 0.03 89 1017.9
20260905185556 23 26 1.6 4.8 0.00 0.03 0.03 91 1018.1
20260905185055 22 295 1.6 4.8 0.00 0.03 0.03 90 1018.2
20260905184618 22 340 1.6 8.0 0.00 0.03 0.03 90 1018.3
20260905184053 22 300 1.6 8.0 0.00 0.03 0.03 89 1018.4
20260905183554 23 63 3.2 9.7 0.00 0.03 0.03 90 1018.2
20260905183100 23 42 1.6 9.7 0.00 0.03 0.03 89 1018.1
20260905182557 23 136 4.8 11.3 0.00 0.03 0.03 89 1018.1
20260905182058 23 80 3.2 11.3 0.00 0.03 0.03 89 1018.1
20260905181604 23 33 3.2 8.0 0.00 0.03 0.03 91 1018.1
20260905181054 23 219 3.2 8.0 0.00 0.03 0.03 91 1018.0
20260905180554 22 51 3.2 9.7 0.00 0.03 0.03 90 1018.2
20260905175554 23 22 3.2 14.5 0.00 0.03 0.03 90 1018.5
20260905175053 23 109 6.4 14.5 0.00 0.03 0.03 90 1018.4
20260905174619 23 32 3.2 12.9 0.00 0.03 0.03 91 1018.4
20260905174054 23 86 4.8 12.9 0.00 0.03 0.03 91 1018.4
20260905173555 23 96 4.8 12.9 0.00 0.03 0.03 92 1018.3
20260905173113 23 115 6.4 12.9 0.00 0.03 0.03 92 1018.3
20260905172554 23 63 8.0 12.9 0.00 0.03 0.03 92 1018.4
20260905172054 23 15 4.8 12.9 0.00 0.03 0.03 93 1018.4
20260905171605 23 84 3.2 12.9 0.00 0.03 0.03 95 1018.4
20260905171057 23 22 8.0 12.9 0.00 0.03 0.03 95 1018.4
20260905170555 22 34 6.4 9.7 0.00 0.03 0.03 96 1018.4
20260905170101 22 33 3.2 9.7 0.00 0.03 0.03 98 1018.3
20260905165553 22 62 3.2 14.5 0.00 0.03 0.03 98 1018.3
20260905165056 22 59 8.0 14.5 0.00 0.03 0.03 98 1018.4
20260905164606 22 22 6.4 14.5 0.00 0.03 0.03 98 1018.3
20260905164054 22 313 3.2 12.9 0.00 0.03 0.03 99 1018.2
20260905163556 22 29 1.6 9.7 0.00 0.03 0.03 99 1018.3
20260905163108 22 24 1.6 12.9 0.00 0.03 0.03 99 1018.3
20260905162554 22 37 6.4 12.9 0.00 0.03 0.03 98 1018.3
20260905162055 22 51 3.2 11.3 0.00 0.03 0.03 99 1018.3
20260905161604 22 51 3.2 11.3 0.00 0.03 0.03 98 1018.1
20260905161054 22 122 3.2 11.3 0.00 0.03 0.03 98 1018.1
20260905160554 22 60 4.8 11.3 0.00 0.03 0.03 99 1018.0
20260905160105 22 24 3.2 11.3 0.00 0.03 0.03 99 1017.9
20260905155554 22 43 1.6 11.3 0.00 0.03 0.03 99 1017.9
20260905155054 22 52 3.2 12.9 0.00 0.03 0.03 98 1018.0
20260905154607 22 59 1.6 12.9 0.00 0.03 0.03 99 1018.0
20260905154055 22 67 4.8 12.9 0.00 0.03 0.03 99 1017.9
20260905153554 22 38 6.4 12.9 0.00 0.03 0.03 98 1017.9
20260905153113 22 34 3.2 12.9 0.00 0.03 0.03 98 1018.1
20260905152555 22 88 4.8 9.7 0.00 0.03 0.03 98 1018.0
20260905152054 22 27 1.6 6.4 0.00 0.03 0.03 99 1017.9
20260905151604 22 44 1.6 12.9 0.00 0.03 0.03 98 1017.8
20260905151055 21 5 4.8 12.9 0.00 0.03 0.03 98 1017.8
20260905150554 22 66 3.2 11.3 0.00 0.03 0.03 98 1017.8
20260905150104 22 157 4.8 12.9 0.00 0.03 0.03 98 1017.8
20260905145555 22 79 6.4 14.5 0.00 0.03 0.03 98 1017.7
20260905145054 21 31 8.0 14.5 0.00 0.03 0.03 98 1017.7
20260905144611 22 14 6.4 14.5 0.00 0.03 0.03 98 1017.5
20260905144055 22 25 6.4 14.5 0.00 0.03 0.03 98 1017.5
20260905143555 21 28 8.0 12.9 0.00 0.03 0.03 98 1017.3
20260905143109 22 26 3.2 11.3 0.00 0.03 0.03 98 1017.3
20260905142553 22 5 3.2 11.3 0.00 0.03 0.03 98 1017.1
20260905142057 22 67 3.2 17.7 0.00 0.03 0.03 98 1017.0
20260905141614 22 13 6.4 17.7 0.00 0.03 0.03 98 1017.0
20260905141053 22 26 8.0 12.9 0.00 0.03 0.03 98 1016.9
20260905140554 22 22 6.4 12.9 0.00 0.03 0.03 98 1017.0
20260905140104 22 43 3.2 12.9 0.00 0.03 0.03 98 1016.9
20260905135557 22 22 3.2 12.9 0.00 0.03 0.03 98 1016.9
20260905135052 22 53 4.8 14.5 0.00 0.03 0.03 98 1016.9
20260905134607 22 24 4.8 14.5 0.00 0.03 0.03 98 1016.8
20260905134054 22 43 4.8 12.9 0.00 0.03 0.03 98 1016.7
20260905133555 22 83 1.6 12.9 0.00 0.03 0.03 98 1016.7
20260905133102 22 71 1.6 12.9 0.00 0.03 0.03 98 1016.6
20260905132551 22 84 4.8 12.9 0.00 0.03 0.03 98 1016.6